Weather Roundup
Issued by NWS

Home | Current Version | Previous Version | Text Only | Print | Product List | Glossary On
Versions: 1 2 3 4 5 6 7 8 9 10 11 12 13 14 15 16 17 18 19 20 21 22 23 24 25 26 27 28 29 30 31 32 33 34 35 36 37 38 39 40 41 42 43 44 45 46 47 48 49 50
000
NZUS93 KARX 210310
HRRWXR

CURRENT HOURLY OBSERVATIONS ACROSS
MUCH OF THE UPPER MISSISSIPPI VALLEY
NATIONAL WEATHER SERVICE LA CROSSE WI
900 PM CST SAT JAN 20 2018


...SOUTHEAST MINNESOTA...


CITY           SKY/WX    TMP DP  RH WIND       PRES   REMARKS
ROCHESTER      FAIR      33  31  92 SE5       29.91S WCI  29
ROCHESTER/MAYO FAIR      34  31  88 CALM      29.92S
WINONA         FAIR      30  28  93 CALM      29.93S FOG
AUSTIN         NOT AVBL
ALBERT LEA     FAIR      32  30  93 CALM      29.91R
DODGE CENTER   FAIR      32  30  93 CALM      29.91S
PRESTON        FAIR      34  30  86 CALM      29.92S
OWATONNA       FAIR      30  28  93 CALM      29.92S
FARIBAULT      FAIR      28  28 100 CALM      29.92F FOG
$$

...ELSEWHERE IN MINNESOTA...


CITY           SKY/WX    TMP DP  RH WIND       PRES   REMARKS
MINNEAPOLIS    MOCLDY    37  32  82 W3        29.93S
INTNL FALLS    FAIR      27  22  81 W6        29.84F WCI  20
DULUTH         FAIR      32  26  78 NW8       29.86S WCI  25
RED WING       FAIR      28  27  93 CALM      29.93S FOG
REDWOOD FALLS  CLOUDY    38  31  76 N5        29.92S WCI  34
MANKATO        FAIR      33  31  92 CALM      29.92F
WORTHINGTON    CLOUDY    35  30  82 N7        29.92R WCI  29
FAIRMONT       CLOUDY    31  29  92 N3        29.92R
$$

...SOUTHWEST WISCONSIN...


CITY           SKY/WX    TMP DP  RH WIND       PRES   REMARKS
LA CROSSE      FAIR      28  27  96 CALM      29.94R FOG
PRAIRIE DU CHI FAIR      31  28  90 CALM      29.94F
BOSCOBEL       FAIR      30  27  88 CALM      29.95S FOG
LONE ROCK      FAIR      29  29 100 CALM      29.95R FOG
PLATTEVILLE    FAIR      34  33  97 S6        29.95R WCI  29
FORT MC COY    FAIR      28  27  96 CALM      29.95R
CAMP DOUGLAS   CLOUDY    27  27 100 CALM      29.93R
MAUSTON-NEW LI FAIR      28  27  94 CALM      29.93R
VIROQUA        FAIR      39  33  77 SE6       29.92S WCI  35
WIS DELLS      FAIR      32  29  87 S5        29.93R WCI  27
$$

...ELSEWHERE IN WISCONSIN...


CITY           SKY/WX    TMP DP  RH WIND       PRES   REMARKS
MILWAUKEE      FAIR      36  31  82 SW3       29.95F
MADISON        FAIR      30  28  92 CALM      29.95S
GREEN BAY      FAIR      31  28  89 CALM      29.94S
EAU CLAIRE     FAIR      29  28  96 CALM      29.92S FOG
BLACK RVR FLS  FAIR      28  28 100 CALM      29.94R
MEDFORD        FAIR      29  28  94 CALM      29.91R
WAUSAU         FAIR      32  29  88 CALM      29.91R
WIS RAPIDS     FAIR      27  25  92 CALM      29.94R FOG
MARSHFIELD     FAIR      32  29  88 CALM      29.91R
RICE LAKE      FAIR      31  29  94 CALM      29.92S
$$

...NORTHEAST IOWA...


CITY           SKY/WX    TMP DP  RH WIND       PRES   REMARKS
WATERLOO       FAIR      33  31  92 CALM      29.91F
DUBUQUE        FAIR      31  29  92 SW3       29.94R FOG
DECORAH        FAIR      37  34  87 CALM      29.91S
MASON CITY     CLOUDY    32  30  92 NE5       29.91S WCI  27
CHARLES CITY   FAIR      36  36 100 E6        29.90F WCI  31
OELWEIN        FAIR      32  32 100 SE6       29.92F WCI  26
$$

...ELSEWHERE IN IOWA...


CITY           SKY/WX    TMP DP  RH WIND       PRES   REMARKS
DES MOINES     CLOUDY    40  36  86 E5        29.89F
IOWA CITY      CLOUDY    38  34  85 CALM      29.95F
FORT DODGE     CLOUDY    31  29  92 CALM      29.90R
MARSHALLTOWN   FOG       29  29 100 E3        29.90S VSB 1
CEDAR RAPIDS   CLOUDY    37  35  92 SE5       29.92F FOG     WCI  33
$$

...NORTHERN ILLINOIS...


CITY           SKY/WX    TMP DP  RH WIND       PRES   REMARKS
CHICAGO-OHARE  CLOUDY    40  35  83 S7        29.97F
CHICAGO-MIDWAY CLOUDY    42  37  82 SW6       29.98F
MOLINE         CLOUDY    42  37  82 CALM      29.95S
ROCKFORD       FAIR      36  33  89 S5        29.98S WCI  32
PEORIA         CLOUDY    43  39  86 S5        29.98F
$$

NOTE: "FAIR" INDICATES FEW OR NO CLOUDS BELOW 12,000 FEET WITH NO
SIGNIFICANT WEATHER AND/OR OBSTRUCTIONS TO VISIBILITY. WIND
SPEEDS ARE IN MILES-PER-HOUR.




USA.gov is the U.S. government's official web portal to all federal, state and local government web resources and services.